RYR67NG LEVC-EGPH

Flight info

Callsign RYR67NG
Flight time N/A
Altitude 34000
Route TATOS DCT TURUV N860 ANETO DCT OBLOC DCT TUPAR UN861 DIKRO UM184 HEMEL T420 TNT UN57 POL UN601 RIBEL DCT INPIP
Aircraft B738/M-SDE2E3FGHIRWXY/LB1

Departure

Time 2026-04-29 14:22
Airport Valencia Airport (LEVC)

Arrival

Time N/A
Airport Edinburgh Airport (EGPH)
Time Latitude Longitude Altitude Speed Heading
2026-04-29 14:22 39.42417 -0.36776 3903 ft 266 kts 121°
2026-04-29 14:22 39.41414 -0.34745 4785 ft 269 kts 123°
2026-04-29 14:23 39.40380 -0.32715 5610 ft 272 kts 124°
2026-04-29 14:23 39.39576 -0.30495 6355 ft 278 kts 99°
2026-04-29 14:23 39.39808 -0.28023 7036 ft 284 kts 65°
2026-04-29 14:23 39.41074 -0.26068 7711 ft 289 kts 32°
2026-04-29 14:24 39.42912 -0.25042 8395 ft 292 kts
2026-04-29 14:24 39.44943 -0.24797 9115 ft 294 kts
2026-04-29 14:24 39.46999 -0.24598 9853 ft 298 kts
2026-04-29 14:24 39.49088 -0.24335 10354 ft 310 kts
2026-04-29 14:25 39.51318 -0.23989 10514 ft 333 kts
2026-04-29 14:25 39.53680 -0.23567 10795 ft 350 kts
2026-04-29 14:25 39.56115 -0.23095 11362 ft 357 kts
2026-04-29 14:25 39.58582 -0.22597 12032 ft 361 kts
2026-04-29 14:26 39.61072 -0.22086 12716 ft 364 kts
2026-04-29 14:26 39.63591 -0.21569 13360 ft 368 kts
2026-04-29 14:26 39.66135 -0.21048 13990 ft 373 kts
2026-04-29 14:26 39.68721 -0.20935 14554 ft 374 kts 349°
2026-04-29 14:27 39.71281 -0.21537 15225 ft 374 kts 347°
2026-04-29 14:27 39.73844 -0.22184 15823 ft 377 kts 346°
2026-04-29 14:27 39.76432 -0.22831 16404 ft 381 kts 347°
2026-04-29 14:28 39.81689 -0.24096 17614 ft 387 kts 347°
2026-04-29 14:28 39.84345 -0.24720 18196 ft 390 kts 347°
2026-04-29 14:28 39.87034 -0.25348 18716 ft 394 kts 347°
2026-04-29 14:28 39.89736 -0.25977 19223 ft 396 kts 347°
2026-04-29 14:29 39.92464 -0.26613 19705 ft 400 kts 347°
2026-04-29 14:29 39.95223 -0.27258 20172 ft 404 kts 347°
2026-04-29 14:29 39.98001 -0.27908 20643 ft 408 kts 347°
2026-04-29 14:29 40.00848 -0.28166 21074 ft 415 kts
2026-04-29 14:30 40.03691 -0.27411 21568 ft 419 kts 12°
2026-04-29 14:30 40.06531 -0.26503 22024 ft 422 kts 13°
2026-04-29 14:30 40.09396 -0.25571 22447 ft 426 kts 13°
2026-04-29 14:30 40.12284 -0.24636 22881 ft 429 kts 13°
2026-04-29 14:31 40.15192 -0.23705 23328 ft 432 kts 13°
2026-04-29 14:31 40.18128 -0.22776 23703 ft 435 kts 12°
2026-04-29 14:31 40.21081 -0.21849 24063 ft 438 kts 12°
2026-04-29 14:31 40.24057 -0.20920 24438 ft 440 kts 12°
2026-04-29 14:32 40.27042 -0.19990 24797 ft 443 kts 12°
2026-04-29 14:32 40.30046 -0.19055 25135 ft 446 kts 13°
2026-04-29 14:32 40.33076 -0.18112 25502 ft 448 kts 13°
2026-04-29 14:32 40.36116 -0.17164 25867 ft 450 kts 13°
2026-04-29 14:33 40.39168 -0.16211 26216 ft 453 kts 13°
2026-04-29 14:33 40.42243 -0.15249 26543 ft 455 kts 13°
2026-04-29 14:33 40.45334 -0.14283 26870 ft 458 kts 13°
2026-04-29 14:33 40.48446 -0.13308 27209 ft 460 kts 13°
2026-04-29 14:34 40.51568 -0.12329 27540 ft 463 kts 13°
2026-04-29 14:34 40.54704 -0.11345 27866 ft 465 kts 13°
2026-04-29 14:34 40.57855 -0.10355 28177 ft 467 kts 13°
2026-04-29 14:34 40.61025 -0.09358 28477 ft 469 kts 13°
2026-04-29 14:35 40.64208 -0.08356 28785 ft 472 kts 13°
2026-04-29 14:35 40.67413 -0.07347 29075 ft 474 kts 13°
2026-04-29 14:35 40.70620 -0.06335 29365 ft 476 kts 13°
2026-04-29 14:35 40.73850 -0.05315 29642 ft 478 kts 13°
2026-04-29 14:36 40.77088 -0.04292 29979 ft 478 kts 13°
2026-04-29 14:36 40.80315 -0.03271 30356 ft 476 kts 13°
2026-04-29 14:36 40.83533 -0.02252 30735 ft 474 kts 13°
2026-04-29 14:36 40.86739 -0.01236 31060 ft 474 kts 13°
2026-04-29 14:37 40.89894 -0.00235 31329 ft 474 kts 13°
2026-04-29 14:37 40.93100 0.00783 31617 ft 474 kts 13°
2026-04-29 14:37 40.96306 0.01802 31936 ft 473 kts 13°
2026-04-29 14:37 40.99498 0.02818 32271 ft 471 kts 13°
2026-04-29 14:38 41.02686 0.03833 32570 ft 471 kts 13°
2026-04-29 14:38 41.05874 0.04850 32838 ft 471 kts 13°
2026-04-29 14:38 41.09058 0.05866 33127 ft 470 kts 13°
2026-04-29 14:38 41.12234 0.06880 33431 ft 469 kts 13°
2026-04-29 14:39 41.15407 0.07895 33722 ft 469 kts 13°
2026-04-29 14:39 41.18579 0.08911 33918 ft 469 kts 13°
2026-04-29 14:39 41.21769 0.09933 33909 ft 474 kts 13°
2026-04-29 14:40 41.28365 0.12049 33922 ft 481 kts 13°
2026-04-29 14:40 41.34750 0.14103 33919 ft 482 kts 14°
2026-04-29 14:41 41.41267 0.16203 33923 ft 482 kts 14°
2026-04-29 14:41 41.47827 0.18321 33926 ft 481 kts 14°
2026-04-29 14:42 41.54326 0.20425 33913 ft 480 kts 14°
2026-04-29 14:42 41.59726 0.22175 33928 ft 479 kts 14°
2026-04-29 14:43 41.67287 0.24632 33937 ft 478 kts 14°
2026-04-29 14:43 41.73742 0.26733 33938 ft 477 kts 14°
2026-04-29 14:44 41.80190 0.28837 33930 ft 477 kts 14°
2026-04-29 14:44 41.85545 0.30588 33940 ft 476 kts 14°
2026-04-29 14:45 41.91979 0.32695 33931 ft 476 kts 14°
2026-04-29 14:45 41.98419 0.34809 33938 ft 476 kts 14°